Regional Weather Roundup
Issued by NWS

Home | Current Version | Previous Version | Text Only | Print | Product List | Glossary On
Versions: 1 2 3 4 5 6 7 8 9 10 11 12 13 14 15 16 17 18 19 20 21 22 23 24 25 26 27 28 29 30 31 32 33 34 35 36 37 38 39 40 41 42 43 44 45 46 47 48 49 50
000
ASUS43 KTOP 230408
RWRKS

WEATHER ROUNDUP FOR KANSAS
NATIONAL WEATHER SERVICE GOODLAND KS
1100 PM CDT FRI JUL 22 2016

NOTE:  "FAIR" INDICATES FEW OR NO CLOUDS BELOW 12,000 FEET WITH NO
SIGNIFICANT WEATHER AND/OR OBSTRUCTIONS TO VISIBILITY.

KSZ001>006-013>018-027>032-041>047-230500-
NORTHWEST KANSAS

CITY           SKY/WX    TMP DP  RH WIND       PRES   REMARKS
GOODLAND       CLEAR     84  57  39 S15       29.97R
HAYS           PTCLDY    90  61  37 S13       29.90R
HILL CITY      PTCLDY    80  70  71 NE5       29.92R
RUSSELL        CLOUDY    87  62  43 S12       29.88S
$$

KSZ061>065-074>080-084>089-230500-
SOUTHWEST KANSAS

CITY           SKY/WX    TMP DP  RH WIND       PRES   REMARKS
DODGE CITY     CLEAR     81  61  50 S12       29.97S
ELKHART          N/A     82  56  40 SE13        N/A
GARDEN CITY    CLEAR     78  62  57 SE10      29.96R
GREAT BEND     CLOUDY    88  63  42 S14       29.91F
LIBERAL        PTCLDY    84  55  37 S13       30.00S
PRATT          CLEAR     83  58  42 S12       29.95S
$$

KSZ066>073-081>083-090>101-230500-
SOUTHEAST KANSAS

CITY           SKY/WX    TMP DP  RH WIND       PRES   REMARKS
CHANUTE        CLEAR     83  72  69 SE8       29.97S
COFFEYVILLE    CLEAR     84  71  65 S6        29.97S
HUTCHINSON     CLEAR     84  68  58 SE9       29.92S
MEDICINE LODGE   N/A     87  58  37 S9        29.94R
NEWTON         PTCLDY    85  69  58 S14       29.95R
PARSONS        CLEAR     84  71  65 S3        29.98S
WICHITA INTL   PTCLDY    87  69  54 S13       29.93S
WICHITA JABRA  CLEAR     86  69  56 S13       29.94S
WICHITA MCCONL CLEAR     86  68  54 S13       29.95R
WINFIELD       CLEAR     86  69  56 S13       29.96S
$$

KSZ007>012-019>026-033>040-048>060-102>105-230500-
NORTHEAST KANSAS

CITY           SKY/WX    TMP DP  RH WIND       PRES   REMARKS
CONCORDIA      CLEAR     76  70  82 SE9       29.89R
EMPORIA        PTCLDY    84  73  69 SE10      29.94S
LAWRENCE       CLEAR     79  75  87 SE6       29.95R
MANHATTAN      MOCLDY    89  72  56 S8G18     29.90R HX  96
MARYSVILLE     CLOUDY    82  73  74 SE10      29.92S
OLATHE IND     PTCLDY    83  74  74 SE9       29.98R
OLATHE EXE     PTCLDY    82  74  76 S10       29.98R
SALINA         CLEAR     89  70  53 S13       29.88S
TOPEKA BILLARD CLEAR     87  71  58 SE8       29.94R
TOPEKA FORBES  CLEAR     87  72  60 SE7       29.95R
$$




USA.gov is the U.S. government's official web portal to all federal, state and local government web resources and services.